STARLINK-35061, 66191

Orbit data source: Space-Track

STARLINK-35061, 66191 is a payload satellite owned by SpaceX/Seattle (US) in LEO that was launched on Sun, 26 Oct 2025 UTC via an FALCON 9 launch vehicle from the Air Force Eastern Test Range (AFETR). Payload-class satellites include a variety of spacecraft equipped with specific instruments for various scientific and technological missions. These include communications satellites like Starlink; space stations such as the ISS; scientific satellites like the Hubble; Earth observation satellites from companies like Planet Labs, Umbra, and HawkEye 360; GPS; miniature CubeSats for education and research; and military/defense satellites.

Loading next visibility...
Identifier
66191, 2025-243Q
Orbit
LEO
Country
Flag of USUS
Related business
Manufacturer
SpaceX/Seattle
Mission
Operational Commercial Communications
Bus & Motor
STARLINK V2MO, Unknown motor
Mass
575 kg wet, ~530 kg dry
Launch date (UTC)
2025-10-26 (4 months ago)
Launch vehicle
FALCON 9
Launch site
Air Force Eastern Test Range (AFETR)
Object type
Payload
Rocket body
Debris
Shape & HBR
Box + 2 Pan, 17.7 m
Radar Cross Section
36.964 m²

Expand to show TLE details & history
Last TLE update: 8 hours ago

TLE from 8 hours ago
0 STARLINK-35061
1 66191U 25243Q   26061.79217052  .00023348  00000-0  79777-3 0  9997
2 66191  53.1581 277.5804 0000665 102.8918 257.2157 15.30207027 19597
Epoch: 2026-03-02T19:00Z
TLE epoch observation values (Epoch: 2026-03-02T19:00:43.532Z)
Latitude
-0.00005°
Longitude
-168.18152°
Altitude
476.194 km
Speed
7.629 km/s
True Right ascension
18h 30m 19s
True Declination
0° 00' 00"
Sunlit
Object was in daylight at epoch
Visualization orbit readout
Latitude
Unknown
Longitude
Unknown
Altitude
Unknown
Speed
Unknown
Apparent Right ascension
Unknown
Apparent Declination
Unknown
Sunlit
N/A
Visualization observer readout
Local Sidereal Time
07:11:08
Azimuth
Unknown
Elevation
Unknown
Doppler factor
Unknown
Orbital elements
Apogee altitude
475.907 km
Perigee altitude
474.995 km
Semi-major axis
6,853.588 km
Eccentricity
0.00007
Inclination
53.1581°
RAAN
277.5804°
Arg. of periapsis
102.8918°
True anomaly
257.20827°
Mean anomaly
257.2157°
Eccentric anomaly
257.21198°
Mean motion
3.82531 °/min
Orbital period
94.11 mins
BSTAR
0.00079777
Loading maneuver chart data...
Computing Atmospheric mass density...
Loading historical data...
Loading historical data...
Loading historical data...
Loading historical data...
Loading historical data...
Loading historical data...
Loading historical data...

Documentation

Showing up to 5 results
|